Voltar ao catálogo

FREGAT R/B

AtivoPO
NORAD 100142·ROCKET BODY·🇷🇺 Russia

Lançado Jul 19, 2026 de Plesetsk Cosmodrome

Loading…

Próximas Passagens (próximas 24 horas)

TLE

AtualizadoSource: Space-Track

Época: Sep 14, 2026, 13:18 UTC

1 A0142U 26165S   26257.55466902  .00456521  10259-3  49588-3 0  9996
2 A0142  82.2808 166.0550 0017090 188.5319 171.5675 16.09544806  9040

Acompanhe FREGAT R/B em tempo real com AllMySat

Download on the App Store